Humidity-temperature Sensor

Selected Measurement Type: Air Temperature

 
Air Temperature [°C]     6 entries per hour
Showing data from 12/2/2022 (23:00:00 Z) to 12/1/2022 (00:01:00 Z)
Previous Next [ Day | 3-Days | 7-Days ]
First Last
Prev [ Day | 3-Days | 7-Days ] Next
First Last

Start Time:     :
End Time:     :     
Time (in GMT) :00 :50 :40 :30 :20 :10
Previous Next [ Day | 3-Days | 7-Days ]
First Last
Prev [ Day | 3-Days | 7-Days ] Next
First Last


123 => good data
MM => data is determined as missing
-- => data not received/configured
Back to Top Back to Top
12/2/2022 23:00 to 22:10 24.98 24.45 24.43 24.01 24.00 24.15
12/2/2022 22:00 to 21:10 24.17 24.17 24.08 24.45 24.30 24.93
12/2/2022 21:00 to 20:10 24.99 24.60 24.42 24.54 24.93 24.90
12/2/2022 20:00 to 19:10 24.98 24.90 24.84 24.63 24.47 24.91
12/2/2022 19:00 to 18:10 24.98 24.85 24.83 25.10 25.45 25.36
12/2/2022 18:00 to 17:10 25.47 25.34 25.52 25.28 25.35 25.44
12/2/2022 17:00 to 16:10 25.47 25.30 25.25 25.36 25.29 25.14
12/2/2022 16:00 to 15:10 25.32 25.09 25.09 25.21 25.38 25.50
12/2/2022 15:00 to 14:10 25.36 25.25 25.31 25.34 25.42 25.14
12/2/2022 14:00 to 13:10 25.06 25.02 25.01 25.15 25.30 25.28
12/2/2022 13:00 to 12:10 25.08 25.07 24.98 24.95 25.11 24.88
12/2/2022 12:00 to 11:10 25.05 24.98 24.84 24.96 24.77 24.82
12/2/2022 11:00 to 10:10 24.83 24.58 24.82 24.32 24.27 24.01
12/2/2022 10:00 to 9:10 24.07 23.83 24.07 24.06 24.25 23.95
12/2/2022 09:00 to 8:10 -- -- -- -- -- --
12/2/2022 08:00 to 7:10 24.42 24.51 24.51 24.66 25.06 25.08
12/2/2022 07:00 to 6:10 24.99 24.79 24.65 24.60 24.67 24.64
12/2/2022 06:00 to 5:10 24.51 24.36 24.20 24.39 24.22 24.31
12/2/2022 05:00 to 4:10 24.43 24.15 24.49 24.13 24.43 24.84
12/2/2022 04:00 to 3:10 24.80 25.06 25.14 25.26 25.28 25.35
12/2/2022 03:00 to 2:10 25.37 25.45 25.38 25.27 25.40 25.40
12/2/2022 02:00 to 1:10 25.35 25.40 25.22 25.14 25.22 25.19
12/2/2022 01:00 to 0:10 25.25 25.40 25.30 25.41 25.39 25.40
12/2/2022 00:00 to 23:10 25.24 25.43 25.14 25.01 25.17 25.43
12/1/2022 23:00 to 22:10 25.29 25.36 25.28 25.29 25.47 25.43
12/1/2022 22:00 to 21:10 25.48 25.15 25.05 25.25 25.18 25.11
12/1/2022 21:00 to 20:10 25.00 25.11 24.96 25.23 25.16 25.30
12/1/2022 20:00 to 19:10 25.40 25.52 25.48 25.37 25.42 25.28
12/1/2022 19:00 to 18:10 25.29 25.21 25.32 25.15 25.20 24.97
12/1/2022 18:00 to 17:10 24.99 24.97 25.08 25.14 24.93 25.03
12/1/2022 17:00 to 16:10 25.08 24.87 24.96 24.98 24.98 24.63
12/1/2022 16:00 to 15:10 24.75 24.79 24.84 24.78 24.59 25.06
12/1/2022 15:00 to 14:10 24.67 24.70 24.54 24.46 24.43 24.21
12/1/2022 14:00 to 13:10 24.25 24.28 24.20 24.35 24.32 24.05
12/1/2022 13:00 to 12:10 24.16 24.02 23.99 23.83 24.05 24.03
12/1/2022 12:00 to 11:10 24.10 23.91 24.06 23.86 23.91 24.24
12/1/2022 11:00 to 10:10 24.08 24.22 23.99 24.17 23.93 24.13
12/1/2022 10:00 to 9:10 24.12 24.07 24.02 23.99 23.94 24.17
12/1/2022 09:00 to 8:10 24.29 24.10 24.31 24.22 24.47 24.41
12/1/2022 08:00 to 7:10 24.51 24.45 24.65 24.46 24.54 24.65
12/1/2022 07:00 to 6:10 24.77 24.76 24.91 24.69 24.76 24.79
12/1/2022 06:00 to 5:10 24.70 24.67 24.75 24.61 24.91 25.04
12/1/2022 05:00 to 4:10 24.77 24.91 24.90 24.91 24.70 24.87
12/1/2022 04:00 to 3:10 24.82 24.60 24.71 24.63 24.78 24.84
12/1/2022 03:00 to 2:10 24.86 24.74 24.89 24.60 24.38 24.58
12/1/2022 02:00 to 1:10 24.42 24.41 24.47 24.22 24.40 24.07
12/1/2022 01:00 to 0:10 24.37 24.10 24.38 23.89 24.03 24.12